This demonstration page uses our WeatherBlox Daily Observations layout. Learn more.

36.17497, -115.13722

Hourly Observations for January 15, 2018

Temp ( °F °C ) Dew Point ( °F °C ) Humidity (%) Winds ( mph kmh ) Pressure ( in mb ) Visibility ( mi km ) Precip ( " mm )
12:53 am 00:53 Clear 48 8.9 37 2.8 66 66 Calm 30.21 1023 10 16.0934 0 0
1:53 am 01:53 Clear 48 8.9 36 2.2 63 63 WNW 6 9 30.22 1023 10 16.0934 0 0
2:53 am 02:53 Clear 48 8.9 35 1.7 61 61 NNW 8 13 30.22 1023 10 16.0934 0 0
3:53 am 03:53 Clear 50 10 34 1.1 54 54 Calm 30.19 1023 10 16.0934 0 0
4:53 am 04:53 Clear 48 8.9 36 2.2 63 63 Calm 30.19 1023 10 16.0934 0 0
5:53 am 05:53 Clear 47 8.3 35 1.7 63 63 NW 6 9 30.21 1023 10 16.0934 0 0
6:53 am 06:53 Sunny 46 7.8 35 1.7 66 66 WNW 5 7 30.22 1023 10 16.0934 0 0
7:53 am 07:53 Sunny 47 8.3 36 2.2 66 66 WNW 5 7 30.23 1024 10 16.0934 0 0
8:53 am 08:53 Sunny 56 13.3 35 1.7 46 46 N 3 6 30.24 1024 10 16.0934 0 0
9:53 am 09:53 Sunny 60 15.6 33 0.6 36 36 VRB 6 9 30.24 1024 10 16.0934 0 0
10:53 am 10:53 Sunny 60 15.6 36 2.2 41 41 SSE 3 6 30.22 1023 10 16.0934 0 0
11:53 am 11:53 Sunny 62 16.7 36 2.2 38 38 ESE 3 6 30.19 1022 10 16.0934 0 0
12:53 pm 12:53 Sunny 63 17.2 35 1.7 35 35 VRB 3 6 30.16 1021 10 16.0934 0 0
1:53 pm 13:53 Sunny 65 18.3 34 1.1 32 32 E 3 6 30.14 1021 10 16.0934 0 0
2:53 pm 14:53 Sunny 65 18.3 33 0.6 31 31 SE 3 6 30.14 1021 10 16.0934 0 0
3:53 pm 15:53 Sunny 64 17.8 36 2.2 35 35 E 5 7 30.14 1021 10 16.0934 0 0
4:53 pm 16:53 Clear 63 17.2 35 1.7 35 35 Calm 30.15 1021 10 16.0934 0 0
5:53 pm 17:53 Clear 60 15.6 37 2.8 42 42 NW 3 6 30.16 1021 10 16.0934 0 0
6:53 pm 18:53 Clear 57 13.9 38 3.3 49 49 NNW 5 7 30.18 1022 10 16.0934 0 0
7:53 pm 19:53 Clear 56 13.3 41 5 57 57 NW 6 9 30.19 1022 10 16.0934 0 0
8:53 pm 20:53 Clear 54 12.2 41 5 62 62 Calm 30.18 1022 10 16.0934 0 0
9:53 pm 21:53 Clear 53 11.7 41 5 64 64 NNW 3 6 30.18 1022 10 16.0934 0 0
10:53 pm 22:53 Clear 54 12.2 41 5 62 62 Calm 30.18 1022 10 16.0934 0 0
11:53 pm 23:53 Clear 53 11.7 42 5.6 66 66 Calm 30.17 1022 10 16.0934 0 0

Powered by AerisWeather